Estación meteorológica de Serrat (Ripollès, P. N. de les capçaleres del Ter i el Fresser)

Consulta los datos en tiempo real de la estación meteorológica de Serrat





Hora UTC 16:05
Temperatura 12.8 ºC
Humedad 49.0 %
Presión 1014.4 hPa
Pluja 0.0 mm
Velocidad viento 0.0 km/h
Dirección viento SSE
Radiación solar 0.0 W/m²

Datos diarios 2026-05-08



Hora UTC (invierno +1h; verano +2h)
Temperatura (ºC) Humedad (%) Presión (hPa) Velocidad viento (km/h) Precipitación (mm) Radiación solar (W/m²)
Hora UTC Aire Humedad Presión Vel. Dir. Vel. Max Dir. Intent. máx 5 min. Rad. Sol.
00:05 4.9 57.0 1014.2 0.0 WSW 0.0 0.0 0.0
00:10 4.8 57.0 1014.2 0.0 WSW 0.0 0.0 0.0
00:15 4.8 57.0 1014.2 0.0 WSW 0.0 0.0 0.0
00:20 4.8 57.0 1014.2 0.0 WSW 0.0 0.0 0.0
00:25 4.8 57.0 1014.3 0.0 WSW 0.0 0.0 0.0
00:30 4.8 57.0 1014.2 0.0 WSW 0.0 0.0 0.0
00:35 4.8 57.0 1014.1 0.0 WSW 0.0 0.0 0.0
00:40 4.7 57.0 1014.1 0.0 WSW 0.0 0.0 0.0
00:45 4.7 57.0 1014.1 0.0 WSW 0.0 0.0 0.0
00:50 4.8 57.0 1014.1 0.0 WSW 0.0 0.0 0.0
00:55 4.8 57.0 1014.1 0.0 WSW 0.0 0.0 0.0
01:00 4.8 57.0 1014.1 0.0 WSW 0.0 0.0 0.0
01:05 4.9 57.0 1014.0 0.0 WSW 0.0 0.0 0.0
01:10 4.9 57.0 1014.0 0.0 WSW 0.0 0.0 0.0
01:15 4.9 57.0 1014.0 0.0 WSW 0.0 0.0 0.0
01:20 4.9 57.0 1013.9 0.0 WSW 0.0 0.0 0.0
01:25 4.9 57.0 1013.7 0.0 WSW 0.0 0.0 0.0
01:30 4.8 57.0 1013.7 0.0 WSW 0.0 0.0 0.0
01:35 4.8 57.0 1013.6 0.0 WSW 0.0 0.0 0.0
01:40 4.8 57.0 1013.5 0.0 WSW 0.0 0.0 0.0
01:45 4.8 57.0 1013.5 0.0 WSW 0.0 0.0 0.0
01:50 4.7 57.0 1013.5 0.0 WSW 0.0 0.0 0.0
01:55 4.8 57.0 1013.5 0.0 WSW 0.0 0.0 0.0
02:00 4.8 57.0 1013.5 0.0 WSW 0.0 0.0 0.0
02:05 4.7 56.0 1013.4 0.0 WSW 0.0 0.0 0.0
02:10 4.6 57.0 1013.4 0.0 WSW 0.0 0.0 0.0
02:15 4.6 57.0 1013.5 0.0 WSW 0.0 0.0 0.0
02:20 4.6 57.0 1013.4 0.0 WSW 0.0 0.0 0.0
02:25 4.5 57.0 1013.5 0.0 WSW 0.0 0.0 0.0
02:30 4.4 57.0 1013.5 0.0 WSW 0.0 0.0 0.0
02:35 4.3 57.0 1013.6 1.6 WSW 1.6 0.0 0.0
02:40 4.2 57.0 1013.6 0.0 WSW 3.2 0.0 0.0
02:45 4.1 56.0 1013.5 1.6 WSW 3.2 0.0 0.0
02:50 4.0 57.0 1013.4 1.6 WSW 3.2 0.0 0.0
02:55 4.0 57.0 1013.4 0.0 WSW 3.2 0.0 0.0
03:00 4.0 57.0 1013.4 0.0 WSW 1.6 0.0 0.0
03:05 3.9 56.0 1013.4 0.0 WSW 0.0 0.0 0.0
03:10 3.8 57.0 1013.3 0.0 WSW 0.0 0.0 0.0
03:15 3.9 57.0 1013.4 0.0 WSW 0.0 0.0 0.0
03:20 3.9 57.0 1013.3 0.0 WSW 0.0 0.0 0.0
03:25 3.8 56.0 1013.1 0.0 WSW 0.0 0.0 0.0
03:30 3.8 56.0 1013.0 0.0 WSW 0.0 0.0 0.0
03:35 3.8 57.0 1012.9 0.0 WSW 0.0 0.0 0.0
03:40 3.8 56.0 1012.8 0.0 WSW 3.2 0.0 0.0
03:45 3.8 56.0 1012.9 0.0 WSW 3.2 0.0 0.0
03:50 3.7 56.0 1012.9 0.0 WSW 0.0 0.0 0.0
03:55 3.7 56.0 1012.8 0.0 WSW 3.2 0.0 0.0
04:00 3.7 56.0 1012.9 0.0 WSW 3.2 0.0 0.0
04:05 3.7 56.0 1012.9 1.6 WSW 3.2 0.0 0.0
04:10 3.7 56.0 1012.9 0.0 WSW 3.2 0.0 0.0
04:15 3.6 56.0 1013.0 0.0 WSW 1.6 0.0 0.0
04:20 3.6 56.0 1013.0 0.0 WSW 0.0 0.0 0.0
04:25 3.5 56.0 1013.0 0.0 WSW 0.0 0.0 0.0
04:30 3.4 55.0 1013.1 0.0 WSW 0.0 0.0 0.0
04:35 3.4 55.0 1013.1 0.0 WSW 0.0 0.0 0.0
04:40 3.4 55.0 1013.2 0.0 WSW 0.0 0.0 0.0
04:45 3.4 55.0 1013.1 0.0 WSW 0.0 0.0 0.0
04:50 3.4 55.0 1013.1 0.0 WSW 0.0 0.0 0.0
04:55 3.3 54.0 1013.2 0.0 WSW 0.0 0.0 0.0
05:00 3.4 55.0 1013.3 0.0 WSW 0.0 0.0 0.0
05:05 3.3 55.0 1013.4 0.0 WSW 0.0 0.0 0.0
05:10 3.4 54.0 1013.3 1.6 WSW 1.6 0.0 0.0
05:15 3.3 54.0 1013.3 1.6 WSW 1.6 0.0 0.0
05:20 3.3 54.0 1013.5 0.0 WSW 1.6 0.0 0.0
05:25 3.4 54.0 1013.6 0.0 WSW 1.6 0.0 0.0
05:30 3.4 54.0 1013.7 0.0 WSW 3.2 0.0 0.0
05:35 3.4 54.0 1013.7 0.0 WSW 3.2 0.0 0.0
05:40 3.5 54.0 1013.7 0.0 WSW 1.6 0.0 0.0
05:45 3.4 54.0 1013.7 0.0 WSW 1.6 0.0 0.0
05:50 3.5 54.0 1013.6 1.6 WSW 3.2 0.0 0.0
05:55 3.7 54.0 1013.7 0.0 WSW 3.2 0.0 0.0
06:00 4.3 55.0 1013.7 0.0 WSW 1.6 0.0 0.0
06:05 5.3 55.0 1013.7 0.0 WSW 0.0 0.0 0.0
06:10 6.1 53.0 1013.7 0.0 WSW 4.8 0.0 0.0
06:15 6.6 54.0 1013.7 0.0 WSW 3.2 0.0 0.0
06:20 7.1 53.0 1014.0 0.0 WSW 0.0 0.0 0.0
06:25 7.6 53.0 1013.9 0.0 WSW 0.0 0.0 0.0
06:30 8.1 53.0 1014.0 0.0 WSW 0.0 0.0 0.0
06:35 8.4 52.0 1014.2 0.0 WSW 0.0 0.0 0.0
06:40 8.4 53.0 1014.1 0.0 WSW 0.0 0.0 0.0
06:45 8.2 53.0 1014.1 0.0 WSW 0.0 0.0 0.0
06:50 8.3 55.0 1014.2 0.0 WSW 0.0 0.0 0.0
06:55 8.9 57.0 1014.2 0.0 WSW 0.0 0.0 0.0
07:00 8.9 52.0 1014.2 0.0 WSW 0.0 0.0 0.0
07:05 8.7 52.0 1014.2 0.0 WSW 0.0 0.0 0.0
07:10 9.1 53.0 1014.3 0.0 WSW 0.0 0.0 0.0
07:15 9.7 55.0 1014.2 0.0 WSW 0.0 0.0 0.0
07:20 10.4 55.0 1014.4 0.0 WSW 0.0 0.0 0.0
07:25 10.4 52.0 1014.5 0.0 WSW 0.0 0.0 0.0
07:30 10.8 53.0 1014.3 0.0 WSW 0.0 0.0 0.0
07:35 11.0 52.0 1014.4 0.0 WSW 0.0 0.0 0.0
07:40 11.2 52.0 1014.5 0.0 WSW 0.0 0.0 0.0
07:45 11.2 50.0 1014.4 0.0 WSW 0.0 0.0 0.0
07:50 11.4 50.0 1014.4 0.0 SW 0.0 0.0 0.0
07:55 11.7 51.0 1014.3 0.0 SW 0.0 0.0 0.0
08:00 12.0 46.0 1014.3 0.0 SW 0.0 0.0 0.0
08:05 12.1 46.0 1014.2 0.0 SSW 0.0 0.0 0.0
08:10 12.2 42.0 1014.3 0.0 S 0.0 0.0 0.0
08:15 12.4 44.0 1014.5 0.0 S 0.0 0.0 0.0
08:20 12.4 42.0 1014.3 0.0 S 3.2 0.0 0.0
08:25 12.4 41.0 1014.2 0.0 S 1.6 0.0 0.0
08:30 12.7 41.0 1014.1 0.0 SSE 1.6 0.0 0.0
08:35 12.9 42.0 1014.2 0.0 SSE 1.6 0.0 0.0
08:40 13.2 42.0 1014.3 0.0 SSE 1.6 0.0 0.0
08:45 13.4 41.0 1014.4 0.0 SSE 1.6 0.0 0.0
08:50 13.6 37.0 1014.5 0.0 SSE 3.2 0.0 0.0
08:55 13.7 39.0 1014.6 1.6 SSE 9.7 0.0 0.0
09:00 13.6 35.0 1014.6 3.2 SSE 9.7 0.0 0.0
09:05 13.3 37.0 1014.4 4.8 SE 9.7 0.0 0.0
09:10 13.2 37.0 1014.4 3.2 SE 11.3 0.0 0.0
09:15 13.7 37.0 1014.4 1.6 SE 11.3 0.0 0.0
09:20 13.8 37.0 1014.6 8.0 S 8.0 0.0 0.0
09:25 14.1 36.0 1014.6 1.6 SSE 9.7 0.0 0.0
09:30 14.1 35.0 1014.8 9.7 SSE 11.3 0.0 0.0
09:35 14.1 38.0 1014.8 8.0 SSE 11.3 0.0 0.0
09:40 14.1 39.0 1015.0 3.2 S 12.9 0.0 0.0
09:45 14.1 39.0 1015.2 1.6 SSE 12.9 0.0 0.0
09:50 14.1 38.0 1015.3 4.8 S 12.9 0.0 0.0
09:55 14.2 35.0 1015.2 3.2 SE 11.3 0.0 0.0
10:00 14.2 31.0 1015.2 1.6 SSE 12.9 0.0 0.0
10:05 14.2 33.0 1015.1 4.8 SE 12.9 0.0 0.0
10:10 13.9 29.0 1015.2 6.4 S 12.9 0.0 0.0
10:15 13.8 30.0 1015.2 1.6 SSE 12.9 0.0 0.0
10:20 13.8 32.0 1015.1 1.6 SE 12.9 0.0 0.0
10:25 13.8 37.0 1015.2 1.6 SSE 9.7 0.0 0.0
10:30 13.9 40.0 1015.2 6.4 S 11.3 0.0 0.0
10:35 13.9 40.0 1014.9 9.7 SSE 17.7 0.0 0.0
10:40 13.9 41.0 1015.1 11.3 SE 17.7 0.0 0.0
10:50 13.5 42.0 1015.3 6.4 SE 14.5 0.0 0.0
10:55 13.4 44.0 1015.1 4.8 S 12.9 0.0 0.0
11:00 13.3 47.0 1015.0 3.2 S 12.9 0.0 0.0
11:05 13.1 47.0 1015.3 6.4 S 12.9 0.0 0.0
11:10 12.9 49.0 1015.2 9.7 SSE 12.9 0.0 0.0
11:15 12.9 50.0 1015.2 8.0 SE 14.5 0.0 0.0
11:20 12.7 51.0 1015.0 3.2 S 14.5 0.0 0.0
11:25 12.4 51.0 1014.8 3.2 S 11.3 0.0 0.0
11:30 12.4 51.0 1014.6 9.7 ESE 14.5 0.0 0.0
11:35 12.4 51.0 1014.9 1.6 ESE 14.5 0.0 0.0
11:40 12.4 50.0 1014.8 8.0 SSE 11.3 0.0 0.0
11:45 12.5 50.0 1014.6 0.0 SE 11.3 0.0 0.0
11:50 12.6 49.0 1014.6 0.0 S 11.3 0.0 0.0
11:55 12.8 50.0 1014.7 9.7 E 12.9 0.0 0.0
12:00 12.9 50.0 1014.6 0.0 ESE 12.9 0.0 0.0
12:05 13.0 49.0 1014.4 4.8 SSE 12.9 0.0 0.0
12:10 13.1 48.0 1014.5 0.0 SSE 9.7 0.0 0.0
12:15 13.3 48.0 1014.5 3.2 SSE 9.7 0.0 0.0
12:20 13.1 47.0 1014.6 9.7 SSE 11.3 0.0 0.0
12:25 12.9 47.0 1014.8 1.6 SE 12.9 0.0 0.0
12:30 12.8 47.0 1014.7 1.6 S 12.9 0.0 0.0
12:35 12.6 44.0 1014.7 6.4 SE 14.5 0.0 0.0
12:40 12.3 46.0 1014.9 3.2 ESE 12.9 0.0 0.0
12:45 12.1 46.0 1014.8 3.2 SE 11.3 0.0 0.0
12:50 11.9 47.0 1015.0 3.2 S 11.3 0.0 0.0
12:55 11.9 47.0 1015.2 3.2 S 11.3 0.0 0.0
13:00 12.0 47.0 1015.1 1.6 SSE 11.3 0.0 0.0
13:05 12.2 47.0 1015.1 3.2 ESE 11.3 0.0 0.0
13:10 12.2 46.0 1015.1 3.2 ESE 16.1 0.0 0.0
13:15 12.2 46.0 1015.1 3.2 S 16.1 0.0 0.0
13:20 12.2 46.0 1015.2 0.0 SE 12.9 0.0 0.0
13:25 12.1 46.0 1015.1 0.0 SSE 12.9 0.0 0.0
13:30 12.1 45.0 1015.2 1.6 SSE 9.7 0.0 0.0
13:35 12.2 44.0 1015.4 0.0 S 6.4 0.0 0.0
13:40 12.4 45.0 1015.3 1.6 SSE 8.0 0.0 0.0
13:45 12.6 44.0 1015.2 0.0 S 11.3 0.0 0.0
13:50 12.4 44.0 1015.2 0.0 S 11.3 0.0 0.0
13:55 12.5 43.0 1015.2 0.0 SSE 8.0 0.0 0.0
14:00 12.4 43.0 1015.2 0.0 SSE 4.8 0.0 0.0
14:05 12.3 44.0 1015.2 1.6 SSE 8.0 0.0 0.0
14:10 12.0 45.0 1015.4 3.2 SSE 12.9 0.0 0.0
14:15 11.8 46.0 1015.4 1.6 SSE 12.9 0.0 0.0
14:20 11.6 47.0 1015.3 3.2 S 12.9 0.0 0.0
14:25 11.4 50.0 1015.4 0.0 S 8.0 0.0 0.0
14:30 11.3 50.0 1015.3 0.0 SSW 6.4 0.0 0.0
14:35 11.2 52.0 1015.5 0.0 S 6.4 0.0 0.0
14:40 11.1 52.0 1015.5 0.0 S 6.4 0.0 0.0
14:50 10.9 53.0 1015.3 0.0 SSE 8.0 0.0 0.0
14:55 11.0 54.0 1015.3 0.0 SSE 3.2 0.0 0.0
15:00 11.0 54.0 1015.2 0.0 SSE 0.0 0.0 0.0
15:05 11.0 54.0 1014.8 0.0 SSE 1.6 0.0 0.0
15:10 10.9 54.0 1014.6 1.6 ESE 6.4 0.0 0.0
15:15 10.9 54.0 1014.4 4.8 ESE 6.4 0.0 0.0
15:20 11.0 55.0 1014.3 4.8 E 9.7 0.0 0.0
15:25 11.3 55.0 1014.2 3.2 E 9.7 0.0 0.0
15:30 11.4 53.0 1014.2 6.4 E 9.7 0.0 0.0
15:35 11.5 53.0 1014.1 0.0 E 9.7 0.0 0.0
15:40 11.7 51.0 1014.4 0.0 E 6.4 0.0 0.0
15:45 12.1 53.0 1014.3 0.0 E 6.4 0.0 0.0
15:50 12.4 52.0 1014.2 4.8 SE 6.4 0.0 0.0
15:55 12.6 51.0 1014.2 0.0 SE 6.4 0.0 0.0
16:00 12.8 50.0 1014.4 1.6 SE 6.4 0.0 0.0
16:05 12.8 49.0 1014.4 0.0 SSE 8.0 0.0 0.0
Máxima 14.2 57.0 1015.5 11.3 SE 17.7 0.0 0.0
Mínima 3.3 29.0 1012.8
Total 0.0